GW5221 Weather Reports


Display with metric or nautical units.
time (UTC)temp
F
wind
direction
speed
MPH
gust
MPH
rain 1hr
in
rain 24hr
in
rain mn
in
humidity
%
barometer
mb
20260508111241 82 28 2.0 6.0 0.00 0.00 0.00 77 1018.7
20260508110738 82 264 1.0 3.0 0.00 0.00 0.00 77 1018.7
20260508110236 81 344 1.0 3.0 0.00 0.00 0.00 78 1018.7
20260508105735 81 116 2.0 4.0 0.00 0.00 0.00 78 1018.4
20260508105232 81 322 1.0 3.0 0.00 0.00 0.00 79 1018.7
20260508104729 81 288 0.0 1.0 0.00 0.00 0.00 79 1018.6
20260508104226 81 345 1.0 3.0 0.00 0.00 0.00 79 1018.4
20260508103724 81 323 2.0 6.0 0.00 0.00 0.00 79 1018.5
20260508103220 81 0 2.0 4.0 0.00 0.00 0.00 79 1018.5
20260508102717 81 105 3.0 3.0 0.00 0.00 0.00 80 1018.3
20260508102216 80 38 2.0 6.0 0.00 0.00 0.00 80 1018.3
20260508101712 80 333 1.0 7.0 0.00 0.00 0.00 80 1018.3
20260508101210 80 11 3.0 6.0 0.00 0.00 0.00 80 1018.4
20260508100707 80 338 1.0 6.0 0.00 0.00 0.00 81 1018.3
20260508100205 80 36 1.0 4.0 0.00 0.00 0.00 81 1018.2
20260508095656 80 336 1.0 4.0 0.00 0.00 0.00 81 1018.1
20260508095154 80 355 0.0 0.0 0.00 0.00 0.00 81 1018.1
20260508094650 80 354 1.0 2.0 0.00 0.00 0.00 81 1018.3
20260508094147 81 334 1.0 6.0 0.00 0.00 0.00 81 1018.3
20260508093644 81 349 2.0 4.0 0.00 0.00 0.00 81 1018.2
20260508093142 81 323 2.0 4.0 0.00 0.00 0.00 80 1018.2
20260508092639 81 351 2.0 2.0 0.00 0.00 0.00 80 1018.0
20260508092138 81 5 1.0 2.0 0.00 0.00 0.00 80 1018.0
20260508091635 81 9 1.0 3.0 0.00 0.00 0.00 80 1018.1
20260508091132 81 247 2.0 6.0 0.00 0.00 0.00 80 1018.1
20260508090630 81 99 1.0 6.0 0.00 0.00 0.00 80 1018.1
20260508090127 81 18 1.0 3.0 0.00 0.00 0.00 81 1018.1
20260508085622 81 293 0.0 7.0 0.00 0.00 0.00 81 1018.1
20260508085120 81 350 0.0 1.0 0.00 0.00 0.00 81 1017.8
20260508084616 81 90 2.0 4.0 0.00 0.00 0.00 82 1017.8
20260508084114 81 148 0.0 1.0 0.00 0.00 0.00 82 1017.8
20260508083610 81 329 0.0 3.0 0.00 0.00 0.00 81 1017.9
20260508083107 81 251 0.0 4.0 0.00 0.00 0.00 81 1017.8
20260508082603 81 340 0.0 1.0 0.00 0.00 0.00 81 1017.7
20260508082101 81 304 1.0 2.0 0.00 0.00 0.00 80 1017.9
20260508081558 80 1 2.0 4.0 0.00 0.00 0.00 80 1017.8
20260508081054 80 336 3.0 7.0 0.00 0.00 0.00 81 1017.8
20260508080552 81 348 2.0 4.0 0.00 0.00 0.00 81 1018.1
20260508080049 81 38 1.0 2.0 0.00 0.00 0.00 81 1018.0
20260508075545 81 23 2.0 4.0 0.00 0.00 0.00 81 1017.9
20260508075043 81 326 0.0 4.0 0.00 0.00 0.00 81 1018.0
20260508074540 81 357 2.0 4.0 0.00 0.00 0.00 81 1018.0
20260508074037 81 337 1.0 3.0 0.00 0.00 0.00 80 1018.0
20260508073534 81 290 0.0 4.0 0.00 0.00 0.00 80 1018.1
20260508073032 80 194 2.0 4.0 0.00 0.00 0.00 80 1018.1
20260508072527 81 14 1.0 2.0 0.00 0.00 0.00 81 1018.0
20260508072025 81 332 2.0 3.0 0.00 0.00 0.00 81 1017.9
20260508071523 81 357 3.0 3.0 0.00 0.00 0.00 81 1018.1
20260508071020 81 9 1.0 3.0 0.00 0.00 0.00 80 1018.1
20260508070518 81 296 2.0 6.0 0.00 0.00 0.00 80 1018.0
20260508070016 81 335 0.0 6.0 0.00 0.00 0.00 80 1018.2
20260508065513 81 32 3.0 4.0 0.00 0.00 0.00 81 1018.2
20260508065011 81 72 2.0 3.0 0.00 0.00 0.00 80 1018.1
20260508064508 81 337 2.0 3.0 0.00 0.00 0.00 81 1018.1
20260508064006 81 346 1.0 2.0 0.00 0.00 0.00 80 1018.2
20260508063503 81 343 1.0 1.0 0.00 0.00 0.00 80 1018.3
20260508063001 81 324 1.0 2.0 0.00 0.00 0.00 80 1018.1
20260508062459 81 347 0.0 3.0 0.00 0.00 0.00 80 1018.4
20260508061955 81 92 4.0 4.0 0.00 0.00 0.00 80 1018.4
20260508061453 81 261 3.0 4.0 0.00 0.00 0.00 80 1018.4
20260508060948 81 323 1.0 2.0 0.00 0.00 0.00 81 1018.3
20260508060446 81 26 3.0 6.0 0.00 0.00 0.00 81 1018.4
20260508055942 81 17 2.0 3.0 0.00 0.00 0.00 81 1018.4
20260508055439 81 353 1.0 4.0 0.00 0.00 0.00 81 1018.3
20260508054936 81 219 2.0 4.0 0.00 0.00 0.00 81 1018.3
20260508054433 81 18 1.0 2.0 0.00 0.00 0.00 81 1018.3
20260508053929 81 2 2.0 7.0 0.00 0.00 0.00 81 1018.3
20260508053427 81 344 1.0 2.0 0.00 0.00 0.00 81 1018.5
20260508052925 81 350 1.0 2.0 0.00 0.00 0.00 80 1018.6
20260508052422 81 326 0.0 7.0 0.00 0.00 0.00 80 1018.5
20260508051918 81 8 1.0 4.0 0.00 0.00 0.00 80 1018.5
20260508051414 81 58 2.0 6.0 0.00 0.00 0.00 80 1018.5
20260508050910 81 350 1.0 4.0 0.00 0.00 0.00 80 1018.4
20260508050407 81 76 1.0 6.0 0.00 0.00 0.00 80 1018.9
20260508045903 81 44 2.0 4.0 0.00 0.00 0.00 80 1018.7
20260508045401 81 56 1.0 3.0 0.00 0.00 0.00 80 1018.8
20260508044858 81 355 1.0 6.0 0.00 0.00 0.00 80 1019.0
20260508044355 81 262 1.0 8.0 0.00 0.00 0.00 80 1018.9
20260508043850 81 21 4.0 7.0 0.00 0.00 0.00 81 1018.9
20260508043348 81 72 2.0 7.0 0.00 0.00 0.00 81 1019.0
20260508042844 81 309 1.0 2.0 0.00 0.00 0.00 81 1018.8
20260508042342 81 331 2.0 3.0 0.00 0.00 0.00 81 1019.0
20260508041839 81 2 1.0 4.0 0.00 0.00 0.00 81 1019.0
20260508041335 81 339 1.0 3.0 0.00 0.00 0.00 81 1018.9
20260508040832 81 279 1.0 4.0 0.00 0.00 0.00 81 1019.0
20260508040329 81 32 1.0 2.0 0.00 0.00 0.00 81 1019.2
20260508035826 81 4 1.0 6.0 0.00 0.00 0.00 81 1019.3
20260508035324 81 0 1.0 3.0 0.00 0.00 0.00 80 1019.1
20260508034820 81 355 2.0 4.0 0.00 0.00 0.00 80 1019.0
20260508034318 81 234 2.0 7.0 0.00 0.00 0.00 80 1019.0
20260508033814 81 68 4.0 6.0 0.00 0.00 0.00 80 1019.0
20260508033313 81 302 2.0 4.0 0.00 0.00 0.00 81 1019.1
20260508032810 81 21 2.0 4.0 0.00 0.00 0.00 81 1019.1
20260508032307 81 19 3.0 8.0 0.00 0.00 0.00 81 1019.1
20260508031803 81 346 1.0 4.0 0.00 0.00 0.00 81 1019.0
20260508031300 81 277 1.0 7.0 0.00 0.00 0.00 81 1019.0
20260508030756 81 76 2.0 7.0 0.00 0.00 0.00 81 1019.0
20260508030254 81 340 1.0 4.0 0.00 0.00 0.00 81 1018.9
20260508025750 81 49 2.0 8.0 0.00 0.00 0.00 81 1018.9
20260508025248 81 19 2.0 6.0 0.00 0.00 0.00 81 1018.8
20260508024744 81 331 0.0 3.0 0.00 0.00 0.00 81 1018.9
20260508024240 81 16 3.0 6.0 0.00 0.00 0.00 81 1019.0
20260508023738 81 1 3.0 3.0 0.00 0.00 0.00 81 1018.8
20260508023235 81 335 2.0 3.0 0.00 0.00 0.00 81 1018.6
20260508022731 81 358 2.0 3.0 0.00 0.00 0.00 81 1018.8
20260508022227 81 6 1.0 7.0 0.00 0.00 0.00 81 1018.6
20260508021724 81 19 1.0 2.0 0.00 0.00 0.00 81 1018.7
20260508021219 81 14 1.0 7.0 0.00 0.00 0.00 81 1018.6
20260508020717 81 5 3.0 8.0 0.00 0.00 0.00 81 1018.9
20260508020214 81 305 3.0 7.0 0.00 0.00 0.00 82 1018.6
20260508015711 81 2 1.0 3.0 0.00 0.00 0.00 81 1018.6
20260508015208 82 342 1.0 4.0 0.00 0.00 0.00 81 1018.5
20260508014705 82 165 2.0 3.0 0.00 0.00 0.00 80 1018.5
20260508014201 82 21 2.0 2.0 0.00 0.00 0.00 80 1018.4
20260508013657 82 14 1.0 4.0 0.00 0.00 0.00 80 1018.5
20260508013154 82 57 3.0 9.0 0.00 0.00 0.00 80 1018.6
20260508012652 82 27 1.0 6.0 0.00 0.00 0.00 80 1018.5
20260508012149 82 208 2.0 4.0 0.00 0.00 0.00 80 1018.2
20260508011647 82 30 2.0 7.0 0.00 0.00 0.00 80 1018.3
20260508011144 82 354 1.0 2.0 0.00 0.00 0.00 80 1018.2
20260508010641 82 71 2.0 6.0 0.00 0.00 0.00 80 1018.0
20260508010139 82 353 1.0 2.0 0.00 0.00 0.00 80 1018.0
20260508005636 82 37 2.0 6.0 0.00 0.00 0.00 80 1018.1
20260508005132 82 32 1.0 6.0 0.00 0.00 0.00 80 1017.7
20260508004628 82 141 1.0 8.0 0.00 0.00 0.00 79 1017.9
20260508004125 82 145 3.0 7.0 0.00 0.00 0.00 79 1017.9
20260508003621 82 87 2.0 8.0 0.00 0.00 0.00 79 1017.9
20260508003119 82 16 4.0 7.0 0.00 0.00 0.00 79 1017.7
20260508002615 82 329 1.0 3.0 0.00 0.00 0.00 79 1017.5
20260508002113 82 0 5.0 7.0 0.00 0.00 0.00 79 1017.6
20260508001608 82 5 2.0 4.0 0.00 0.00 0.00 78 1017.6
20260508001104 82 350 0.0 6.0 0.00 0.00 0.00 78 1017.7
20260508000600 82 9 1.0 3.0 0.00 0.00 0.00 78 1017.7
20260508000058 82 62 2.0 6.0 0.00 0.00 0.00 78 1017.6
20260507235554 82 43 1.0 8.0 0.00 0.00 0.00 78 1017.6
20260507235052 82 337 2.0 4.0 0.00 0.00 0.00 78 1017.4
20260507234548 82 355 2.0 7.0 0.00 0.00 0.00 78 1017.1
20260507234044 82 25 0.0 2.0 0.00 0.00 0.00 78 1017.2
20260507233541 82 10 3.0 7.0 0.00 0.00 0.00 78 1017.2
20260507233040 83 12 4.0 6.0 0.00 0.00 0.00 78 1017.3
20260507232536 83 8 1.0 3.0 0.00 0.00 0.00 77 1017.1
20260507232033 83 34 3.0 7.0 0.00 0.00 0.00 77 1017.0
20260507231529 83 14 2.0 7.0 0.00 0.00 0.00 77 1017.0
20260507231027 83 6 6.0 7.0 0.00 0.00 0.00 77 1016.9
20260507230524 83 8 4.0 6.0 0.00 0.00 0.00 77 1016.9
20260507230020 83 15 2.0 7.0 0.00 0.00 0.00 77 1017.1
20260507225515 84 64 4.0 7.0 0.00 0.00 0.00 76 1016.9
20260507225012 84 40 3.0 6.0 0.00 0.00 0.00 75 1016.7
20260507224508 84 220 4.0 9.0 0.00 0.00 0.00 74 1016.7
20260507224004 84 37 6.0 9.0 0.00 0.00 0.00 74 1016.8
20260507223500 84 66 2.0 6.0 0.00 0.00 0.00 73 1016.7
20260507222958 84 334 2.0 6.0 0.00 0.00 0.00 72 1016.5
20260507222454 84 304 1.0 7.0 0.00 0.00 0.00 71 1016.6
20260507221951 84 289 2.0 7.0 0.00 0.00 0.00 71 1016.5
20260507221448 84 151 5.0 8.0 0.00 0.00 0.00 72 1016.6
20260507220944 85 12 3.0 7.0 0.00 0.00 0.00 72 1016.4
20260507220442 85 8 1.0 8.0 0.00 0.00 0.00 72 1016.4
20260507215938 85 10 5.0 8.0 0.00 0.00 0.00 71 1016.4
20260507215435 86 67 2.0 6.0 0.00 0.00 0.00 70 1016.5
20260507214932 86 123 4.0 7.0 0.00 0.00 0.00 69 1016.7
20260507214430 86 326 2.0 4.0 0.00 0.00 0.00 70 1016.5
20260507213925 86 352 4.0 9.0 0.00 0.00 0.00 70 1016.4
20260507213422 86 34 2.0 4.0 0.00 0.00 0.00 71 1016.6
20260507212919 86 76 4.0 8.0 0.00 0.00 0.00 71 1016.5
20260507212414 86 308 1.0 8.0 0.00 0.00 0.00 70 1016.4
20260507211912 87 2 2.0 8.0 0.00 0.00 0.00 69 1016.5
20260507211408 87 45 0.0 7.0 0.00 0.00 0.00 69 1016.5
20260507210905 87 331 2.0 7.0 0.00 0.00 0.00 68 1016.7
20260507210402 87 356 2.0 7.0 0.00 0.00 0.00 69 1016.5
20260507205858 87 60 5.0 10.0 0.00 0.00 0.00 68 1016.6
20260507205355 87 149 3.0 11.0 0.00 0.00 0.00 68 1016.6
20260507204852 88 59 2.0 10.0 0.00 0.00 0.00 67 1016.6
20260507204349 88 49 1.0 4.0 0.00 0.00 0.00 68 1016.5
20260507203847 87 251 4.0 7.0 0.00 0.00 0.00 67 1016.7
20260507203344 87 12 2.0 11.0 0.00 0.00 0.00 66 1016.6
20260507202840 88 77 2.0 9.0 0.00 0.00 0.00 65 1016.7
20260507202337 88 333 1.0 6.0 0.00 0.00 0.00 64 1016.6
20260507201832 88 29 3.0 9.0 0.00 0.00 0.00 63 1016.6
20260507201328 89 277 4.0 7.0 0.00 0.00 0.00 64 1016.8
20260507200825 89 36 3.0 6.0 0.00 0.00 0.00 64 1016.7
20260507200321 88 313 4.0 8.0 0.00 0.00 0.00 65 1016.9
20260507195817 88 24 4.0 6.0 0.00 0.00 0.00 63 1016.9
20260507195314 88 82 3.0 7.0 0.00 0.00 0.00 63 1017.1
20260507194812 89 9 3.0 13.0 0.00 0.00 0.00 64 1017.0
20260507194308 89 41 2.0 10.0 0.00 0.00 0.00 63 1016.8
20260507193804 89 78 2.0 4.0 0.00 0.00 0.00 64 1017.1
20260507193301 89 41 3.0 8.0 0.00 0.00 0.00 64 1017.1
20260507192757 90 104 4.0 7.0 0.00 0.00 0.00 62 1017.2
20260507192254 89 359 2.0 6.0 0.00 0.00 0.00 65 1017.2
20260507191750 90 356 4.0 7.0 0.00 0.00 0.00 63 1017.3
20260507191247 89 119 3.0 4.0 0.00 0.00 0.00 64 1017.4
20260507190744 89 92 2.0 10.0 0.00 0.00 0.00 64 1017.6
20260507190242 89 359 1.0 4.0 0.00 0.00 0.00 64 1017.4
20260507185741 89 140 4.0 8.0 0.00 0.00 0.00 63 1017.4
20260507185237 90 58 4.0 6.0 0.00 0.00 0.00 63 1017.6
20260507184735 90 5 2.0 8.0 0.00 0.00 0.00 63 1017.5
20260507184232 90 69 2.0 7.0 0.00 0.00 0.00 62 1017.5
20260507183724 90 223 2.0 9.0 0.00 0.00 0.00 61 1017.5
20260507183220 91 296 2.0 9.0 0.00 0.00 0.00 62 1017.5
20260507182718 90 351 2.0 6.0 0.00 0.00 0.00 62 1017.7
20260507182213 90 77 2.0 9.0 0.00 0.00 0.00 63 1017.8
20260507181710 91 24 6.0 9.0 0.00 0.00 0.00 60 1017.7
20260507181206 90 1 1.0 6.0 0.00 0.00 0.00 61 1017.8
20260507180702 90 318 1.0 6.0 0.00 0.00 0.00 62 1017.6
20260507180200 90 325 4.0 10.0 0.00 0.00 0.00 63 1017.7
20260507175655 90 334 3.0 7.0 0.00 0.00 0.00 61 1018.1
20260507175152 90 344 3.0 13.0 0.00 0.00 0.00 61 1018.1
20260507174649 90 3 3.0 7.0 0.00 0.00 0.00 61 1018.2
20260507174148 90 355 1.0 4.0 0.00 0.00 0.00 61 1018.4
20260507173644 90 44 3.0 6.0 0.00 0.00 0.00 61 1018.3
20260507173141 90 10 2.0 7.0 0.00 0.00 0.00 63 1018.5
20260507172637 89 330 2.0 6.0 0.00 0.00 0.00 64 1018.6
20260507172135 89 328 3.0 9.0 0.00 0.00 0.00 65 1018.7
20260507171635 89 67 3.0 8.0 0.00 0.00 0.00 66 1018.9
20260507171132 89 42 2.0 8.0 0.00 0.00 0.00 64 1018.9
20260507170629 89 352 1.0 8.0 0.00 0.00 0.00 65 1019.0
20260507170126 89 46 2.0 3.0 0.00 0.00 0.00 65 1019.2
20260507165622 89 105 1.0 7.0 0.00 0.00 0.00 66 1019.1
20260507165119 89 42 4.0 7.0 0.00 0.00 0.00 65 1019.2
20260507164614 89 349 1.0 8.0 0.00 0.00 0.00 66 1019.4
20260507164111 89 81 3.0 8.0 0.00 0.00 0.00 67 1019.4
20260507163610 88 189 2.0 3.0 0.00 0.00 0.00 67 1019.7
20260507163108 89 122 3.0 6.0 0.00 0.00 0.00 66 1019.5
20260507162607 88 311 2.0 6.0 0.00 0.00 0.00 67 1019.5
20260507162105 88 31 5.0 8.0 0.00 0.00 0.00 67 1019.6
20260507161600 88 92 3.0 8.0 0.00 0.00 0.00 68 1019.7
20260507161057 87 44 4.0 8.0 0.00 0.00 0.00 69 1019.7
20260507160554 87 139 3.0 8.0 0.00 0.00 0.00 68 1019.8
20260507160050 87 301 2.0 4.0 0.00 0.00 0.00 70 1019.9
20260507155545 87 93 4.0 7.0 0.00 0.00 0.00 69 1020.0
20260507155043 87 264 1.0 8.0 0.00 0.00 0.00 70 1019.9
20260507154540 88 79 4.0 9.0 0.00 0.00 0.00 69 1019.9
20260507154037 88 53 2.0 3.0 0.00 0.00 0.00 68 1020.0
20260507153534 87 253 3.0 6.0 0.00 0.00 0.00 68 1019.9
20260507153030 87 77 2.0 6.0 0.00 0.00 0.00 69 1020.1
20260507152525 87 137 3.0 4.0 0.00 0.00 0.00 69 1020.1
20260507152022 88 347 4.0 8.0 0.00 0.00 0.00 68 1020.0
20260507151518 88 164 2.0 6.0 0.00 0.00 0.00 68 1019.9
20260507151015 88 196 5.0 7.0 0.00 0.00 0.00 69 1019.9
20260507150512 88 238 2.0 8.0 0.00 0.00 0.00 68 1019.8
20260507150009 88 107 3.0 7.0 0.00 0.00 0.00 69 1019.7
20260507145504 88 346 1.0 4.0 0.00 0.00 0.00 68 1020.0
20260507145002 88 354 2.0 7.0 0.00 0.00 0.00 68 1020.0
20260507144458 88 15 2.0 6.0 0.00 0.00 0.00 67 1020.2
20260507143955 88 8 2.0 10.0 0.00 0.00 0.00 68 1020.3
20260507143453 87 44 2.0 4.0 0.00 0.00 0.00 68 1020.3
20260507142949 87 23 3.0 9.0 0.00 0.00 0.00 69 1020.2
20260507142445 87 251 3.0 6.0 0.00 0.00 0.00 69 1020.3
20260507141943 87 346 3.0 6.0 0.00 0.00 0.00 70 1020.2
20260507141438 87 103 4.0 7.0 0.00 0.00 0.00 69 1020.1
20260507140935 87 302 3.0 6.0 0.00 0.00 0.00 71 1020.3
20260507140432 87 285 1.0 8.0 0.00 0.00 0.00 70 1020.3
20260507135930 87 335 1.0 4.0 0.00 0.00 0.00 71 1020.1
20260507135426 87 335 1.0 8.0 0.00 0.00 0.00 71 1020.2
20260507134924 87 36 2.0 10.0 0.00 0.00 0.00 70 1020.3
20260507134420 86 32 2.0 10.0 0.00 0.00 0.00 71 1020.2
20260507133916 86 64 5.0 8.0 0.00 0.00 0.00 71 1020.3
20260507133412 87 236 2.0 6.0 0.00 0.00 0.00 70 1020.2
20260507132911 86 11 1.0 7.0 0.00 0.00 0.00 70 1020.0
20260507132407 86 165 3.0 4.0 0.00 0.00 0.00 72 1020.3
20260507131905 87 286 2.0 4.0 0.00 0.00 0.00 71 1020.2
20260507131400 87 305 3.0 4.0 0.00 0.00 0.00 71 1020.4
20260507130857 87 209 2.0 7.0 0.00 0.00 0.00 70 1020.1
20260507130354 86 303 1.0 2.0 0.00 0.00 0.00 73 1020.0
20260507125853 86 319 3.0 4.0 0.00 0.00 0.00 71 1020.1
20260507125350 86 105 4.0 8.0 0.00 0.00 0.00 71 1019.9
20260507124848 85 153 4.0 4.0 0.00 0.00 0.00 73 1019.8
20260507124344 85 305 2.0 6.0 0.00 0.00 0.00 73 1020.1
20260507123843 85 9 3.0 8.0 0.00 0.00 0.00 73 1019.9
20260507123339 85 176 4.0 6.0 0.00 0.00 0.00 73 1019.9
20260507122835 86 320 3.0 6.0 0.00 0.00 0.00 73 1019.9
20260507122331 86 206 1.0 3.0 0.00 0.00 0.00 73 1020.0
20260507121828 86 328 2.0 9.0 0.00 0.00 0.00 72 1020.0
20260507121323 86 102 2.0 4.0 0.00 0.00 0.00 73 1019.8
20260507120820 85 311 2.0 6.0 0.00 0.00 0.00 74 1020.0
20260507120316 86 173 2.0 10.0 0.00 0.00 0.00 73 1019.8
20260507115812 85 41 2.0 2.0 0.00 0.00 0.00 75 1020.0
20260507115308 84 14 2.0 6.0 0.00 0.00 0.00 76 1019.5
20260507114804 84 248 4.0 7.0 0.00 0.00 0.00 77 1019.8
20260507114301 84 345 3.0 6.0 0.00 0.00 0.00 77 1019.7
20260507113759 83 81 2.0 3.0 0.00 0.00 0.00 78 1019.8
20260507113255 83 347 1.0 3.0 0.00 0.00 0.00 78 1019.6
20260507112753 83 352 2.0 8.0 0.00 0.00 0.00 79 1019.7
20260507112250 82 305 2.0 6.0 0.00 0.00 0.00 80 1019.5
20260507111748 82 98 1.0 4.0 0.00 0.00 0.00 80 1019.5